Total_Precipitation_Accumulation
1.86 1.76 1.39 0.92 0.86 1.04 1.09 0.78 0.59 0.80 1.25 1.32 1.55 1.46 1.14 1.41 1.47 1.15 1.59 1.56 1.53 2.08 1.93 2.35 2.14 1.42 1.05 1.30 1.17 0.87 0.71 1.26 1.04 1.54 1.31 1.18 1.08 1.10 1.39 1.00 0.89 1.22 1.50 2.11 1.08 1.10 1.04 1.11 0.82 0.90 1.17 1.00 0.86 1.02 1.14 0.58 0.69 1.04 1.00 0.98 1.22 0.64 1.30 1.16 1.42 0.89 0.27 0.20 0.54 0.51 0.74 0.94 0.61 0.48 0.52 0.36 0.37 0.32 0.38 0.33 0.49 1.49 1.02 0.81 0.44
2.51 2.64 2.01 2.31 1.79 2.70 1.58 1.88 1.09 0.41 0.48 1.36 1.64 2.00 2.18 2.57 1.41 0.70 1.35 1.99 1.62 1.33 0.98 1.35 1.02 1.20 0.99 0.83 1.09 1.33 1.29 1.25 1.42 1.30 1.79 1.26 1.00 1.28 0.78 0.74 0.83 1.33 1.37 0.84 0.79 0.73 1.03 1.02 0.69 0.83 0.95 0.94 1.20 1.17 0.74 0.88 0.85 1.22 0.74 0.58 1.14 0.93 0.99 1.59 1.18 1.32 0.81 0.44 0.42 0.51 0.78 0.49 0.34 0.30 0.57 0.69 0.58 0.44 0.64 0.79 0.47 0.45 0.47 0.81 1.04
2.81 1.91 2.47 1.81 1.87 1.60 1.69 1.52 1.24 1.18 0.98 1.34 1.86 2.79 2.25 1.73 1.83 1.32 1.52 1.79 1.38 1.08 0.90 0.90 1.04 1.05 1.32 1.83 2.23 1.96 1.77 1.51 1.31 1.46 1.03 1.09 1.06 1.60 0.91 1.15 1.11 0.98 0.84 0.81 0.84 1.27 0.99 0.77 0.84 0.77 1.80 1.31 1.36 0.98 1.02 1.22 1.09 1.20 0.85 0.95 1.19 0.79 0.83 1.35 1.73 1.29 0.84 0.74 0.52 0.48 0.42 0.39 0.45 0.31 0.32 0.34 0.47 0.45 0.42 0.44 0.53 0.59 0.57 0.69 1.09
1.83 1.92 2.45 2.00 2.01 1.31 1.34 0.76 0.79 0.49 0.46 0.70 1.60 2.62 2.05 1.69 0.99 0.85 1.21 1.68 1.27 1.03 0.66 0.61 1.03 0.97 1.36 1.24 1.35 1.74 1.79 1.74 1.68 1.42 1.02 0.98 1.55 1.80 1.79 1.37 1.10 1.05 0.84 0.76 0.91 0.88 0.70 0.72 0.97 1.14 0.89 1.55 1.99 1.04 1.12 1.27 1.36 1.20 1.00 1.59 0.95 1.07 0.82 1.07 1.12 1.24 0.86 0.87 0.29 0.42 0.40 0.48 0.24 0.33 0.58 0.69 0.38 0.27 0.25 0.49 0.40 0.64 0.42 0.97 1.39
2.00 2.48 2.14 1.82 1.75 1.64 1.30 1.19 0.66 0.90 1.01 1.02 1.41 1.43 1.61 1.32 0.90 0.82 0.96 1.17 1.17 0.87 0.94 0.87 1.17 1.48 1.75 1.33 1.46 1.34 1.49 1.61 1.62 1.45 1.44 1.29 1.25 1.29 1.68 1.11 1.07 0.80 0.88 1.07 0.80 0.95 1.05 1.34 1.26 1.48 1.31 1.45 1.70 1.16 1.10 1.38 1.03 1.12 1.13 1.08 1.01 1.36 1.00 1.25 1.32 1.50 1.43 1.00 0.46 0.46 0.68 0.62 0.74 0.57 0.33 0.41 0.56 0.77 0.93 1.55 0.66 0.38 0.34 0.78 0.79
2.57 1.91 2.06 2.54 2.32 2.00 1.76 1.58 1.42 0.97 0.74 1.08 1.64 1.70 1.80 1.35 1.25 0.75 0.58 1.00 1.11 0.53 0.76 0.91 0.63 0.68 0.71 0.79 0.87 1.17 1.50 1.58 1.52 1.11 1.37 1.54 2.09 1.39 1.39 1.19 0.76 0.77 0.87 1.01 1.17 0.97 0.89 0.86 0.83 0.96 1.09 1.23 1.48 1.50 1.87 1.93 1.69 1.51 1.71 1.49 1.43 1.45 1.32 1.34 1.87 1.32 1.87 1.63 1.02 0.64 0.56 0.72 0.76 0.92 0.68 0.86 1.32 0.82 0.57 0.48 1.01 0.96 1.88 1.48 1.19
2.06 2.09 2.08 1.93 2.39 1.86 1.42 1.10 1.39 1.19 1.37 1.37 1.49 1.77 1.70 1.20 0.84 0.45 0.56 0.67 0.78 0.80 1.01 1.15 0.92 0.74 0.97 1.12 1.38 1.28 1.26 1.54 1.54 1.25 1.55 1.50 1.41 1.30 1.31 1.42 0.92 0.92 0.54 0.64 0.80 0.85 0.94 1.25 1.50 1.31 1.17 1.02 1.05 0.99 1.47 1.23 1.24 1.33 1.50 1.39 1.51 2.27 2.15 1.56 1.23 1.59 1.49 1.12 1.04 0.75 0.83 0.94 0.77 0.84 0.67 0.78 0.79 0.71 0.70 0.37 0.38 0.59 0.53 0.55 1.24
2.11 2.33 2.23 2.18 1.91 2.08 2.29 1.96 2.11 1.43 1.31 1.47 1.61 1.95 1.96 1.59 1.62 1.65 1.33 0.99 0.80 1.04 1.17 0.74 0.95 0.77 0.75 0.88 0.79 1.25 1.06 1.33 1.38 1.40 1.51 1.29 1.31 1.28 1.29 1.21 0.90 0.97 1.11 0.76 0.83 1.07 1.15 1.08 0.94 1.10 0.89 1.01 1.44 1.44 1.11 0.95 1.02 1.19 1.25 1.56 1.85 2.34 2.02 2.09 2.00 1.46 1.51 1.43 1.41 1.11 0.81 0.84 1.26 0.97 1.28 1.09 1.23 1.21 0.70 0.64 0.49 0.37 0.53 0.76 0.50
3.19 2.08 1.98 2.64 2.97 3.17 3.01 2.77 2.30 1.54 1.27 1.24 1.32 1.99 1.75 1.78 1.79 1.97 1.78 1.61 1.36 1.31 1.37 1.02 0.68 0.97 0.80 0.95 0.86 1.00 1.65 1.73 1.32 1.35 1.73 1.15 1.03 0.92 0.92 0.99 0.95 1.05 0.99 0.91 0.71 0.78 0.70 0.93 0.81 0.64 0.99 0.70 0.93 1.52 1.73 1.48 1.92 1.48 1.21 1.18 1.35 1.79 2.18 2.38 2.50 2.27 2.77 2.65 1.80 1.76 1.60 1.16 0.90 1.04 1.02 0.72 0.91 0.50 0.73 1.09 1.03 0.66 0.80 0.79 0.68
1.90 2.57 2.96 2.51 2.43 2.59 2.40 2.27 1.84 1.30 1.09 0.90 0.64 0.95 1.49 0.81 1.04 1.47 1.24 1.01 0.75 1.10 1.28 1.46 1.31 1.00 0.92 0.85 0.85 1.64 1.69 2.51 1.86 1.83 1.41 1.22 1.11 0.96 0.88 0.82 0.70 0.69 0.76 0.91 1.12 1.32 1.13 0.85 0.68 0.52 0.62 0.69 0.83 0.77 1.41 1.73 1.32 1.56 2.37 2.15 1.62 1.71 1.85 2.21 2.29 2.51 2.39 2.34 1.83 1.94 2.24 1.08 0.97 0.95 0.91 0.86 0.95 1.25 1.04 1.15 1.02 0.74 0.74 0.96 1.14
2.60 3.04 3.68 2.83 2.88 2.24 1.83 1.28 1.58 1.34 0.96 1.01 0.89 0.78 1.28 1.29 1.46 1.02 1.25 1.09 1.08 1.21 0.78 0.83 0.87 1.17 0.87 1.04 1.39 1.54 1.45 1.52 1.99 1.27 1.25 1.16 1.36 1.49 1.23 1.13 0.95 0.58 0.66 0.75 0.74 0.72 1.29 1.28 1.14 1.18 1.14 0.66 0.43 0.41 0.53 0.70 0.57 0.75 1.11 1.36 1.80 2.27 2.80 2.88 1.79 2.10 2.04 2.06 1.60 1.94 1.47 1.29 0.96 0.68 0.87 0.81 1.02 0.96 1.13 1.06 1.09 1.25 1.17 1.23 1.02
2.50 2.42 2.24 3.00 3.46 3.05 2.62 2.20 2.09 1.94 1.33 1.05 1.76 1.40 1.43 1.83 1.37 1.06 1.17 1.02 1.25 1.04 1.04 0.92 0.97 1.07 1.14 1.26 1.40 1.50 1.92 1.57 1.54 1.65 1.76 1.46 1.40 1.65 1.36 1.13 1.13 1.03 1.05 1.09 1.13 0.84 1.02 1.08 1.17 1.07 0.86 0.92 0.96 0.76 0.80 0.60 0.65 0.78 0.77 0.76 0.64 0.69 1.39 1.95 2.03 2.06 1.79 1.76 2.48 1.77 1.43 1.57 1.21 0.93 0.88 1.00 0.89 1.09 0.86 0.97 1.14 1.38 1.39 1.18 0.88
2.77 2.79 3.18 3.23 3.34 3.09 2.85 2.34 2.75 2.06 2.16 1.18 1.60 3.74 2.81 2.14 1.79 1.30 0.97 0.90 1.23 1.17 0.61 0.88 1.37 1.28 1.11 1.26 1.87 1.84 2.06 1.91 1.58 1.94 1.62 1.84 1.38 1.09 1.30 1.61 1.67 1.47 1.35 1.50 1.11 0.96 0.90 1.11 1.27 0.99 1.21 0.93 0.96 0.97 1.52 1.42 1.86 1.64 0.79 0.96 1.07 0.92 0.90 0.94 0.98 1.75 2.50 1.96 2.16 1.70 1.56 1.42 1.52 1.06 1.02 0.97 1.05 1.33 1.28 1.32 1.10 1.32 1.37 1.55 1.09
1.89 1.98 2.55 2.31 2.34 2.65 2.58 3.11 2.63 2.58 2.14 1.90 2.24 1.93 1.73 1.80 2.55 1.91 1.84 1.83 1.25 1.46 1.63 1.35 1.11 1.48 1.32 0.92 1.01 1.57 2.18 2.33 1.73 1.65 1.36 1.45 1.53 1.42 1.49 1.44 1.37 1.28 1.30 1.14 1.12 1.33 1.44 1.45 1.52 1.75 1.24 1.18 1.22 1.40 1.40 1.27 1.52 2.56 2.60 1.89 1.71 1.79 1.69 1.41 1.11 1.02 1.49 2.02 2.16 1.90 2.15 1.66 1.96 1.29 1.01 1.03 1.31 1.51 1.36 1.26 1.32 1.30 1.32 1.30 1.73
1.41 1.38 1.91 2.40 1.99 1.89 2.20 2.44 3.10 2.49 2.46 2.25 2.58 3.01 1.78 2.38 1.89 1.58 1.94 1.59 1.82 2.13 1.77 1.90 1.90 1.70 1.45 1.34 1.42 1.89 2.28 1.31 1.99 1.73 1.60 1.32 1.04 1.04 1.38 1.73 1.49 1.53 1.58 1.47 1.74 1.44 1.46 1.37 1.28 1.64 1.44 1.40 1.25 1.30 1.21 1.36 1.50 1.45 2.09 2.38 2.14 1.68 1.90 1.97 2.15 2.30 2.24 2.16 1.68 1.45 1.74 1.79 1.32 1.28 1.79 1.41 1.35 1.34 1.27 1.53 2.08 2.33 1.94 2.36 2.10
1.53 1.41 1.44 1.60 1.89 2.29 2.51 2.38 2.53 2.89 2.36 2.50 2.55 2.39 2.37 2.61 2.01 2.60 2.01 1.92 1.87 1.87 1.53 1.46 1.21 1.35 1.79 2.19 1.61 1.35 1.55 0.92 0.90 1.14 1.63 1.89 1.60 1.37 1.15 1.16 1.37 1.38 1.22 1.28 1.24 1.42 1.59 1.44 1.29 0.90 0.91 1.06 0.84 0.88 1.11 1.49 1.76 1.45 1.46 1.41 1.96 1.79 3.11 2.72 1.54 1.73 1.75 1.93 1.90 1.40 1.30 1.38 1.22 1.76 1.86 2.04 1.79 2.16 2.01 1.63 1.80 2.13 2.38 2.50 2.16
2.00 2.21 1.89 1.64 1.78 1.60 2.18 2.14 3.05 2.60 2.81 1.84 2.01 2.32 2.76 2.27 2.20 2.10 2.47 2.87 2.39 2.30 2.14 2.11 1.95 1.73 2.47 1.85 1.50 1.56 1.29 1.14 1.40 1.34 1.46 1.89 2.30 1.92 2.06 2.75 2.88 2.39 2.14 2.07 1.84 1.42 1.61 1.74 1.64 1.85 2.00 1.25 1.10 0.87 0.77 1.29 1.61 1.23 1.28 1.29 1.39 1.33 1.54 1.39 1.42 1.46 1.67 2.17 2.22 1.89 1.20 1.73 1.94 1.79 2.00 2.06 2.72 2.54 3.47 3.23 2.83 2.18 3.11 2.81 1.73
1.40 1.86 2.07 2.30 2.50 2.02 2.13 2.44 1.67 2.16 2.78 2.65 1.94 1.82 2.30 2.24 2.48 2.19 2.11 1.89 1.88 1.91 1.75 2.11 1.90 1.69 1.66 1.63 1.55 1.58 2.00 1.52 0.97 0.94 0.75 0.77 1.11 1.38 1.82 2.01 1.94 2.39 2.20 1.94 1.88 1.98 2.00 2.28 2.31 2.23 2.09 1.76 1.04 1.04 1.65 2.42 2.12 1.57 1.55 1.70 2.21 2.60 2.02 1.47 1.36 2.18 1.13 1.52 2.16 2.92 1.99 1.85 1.88 1.82 2.02 2.26 2.07 2.95 3.67 3.09 2.08 2.18 2.69 2.53 1.82
1.56 1.90 1.78 2.39 2.36 2.41 2.81 3.04 2.49 2.16 2.65 2.52 2.06 1.71 1.46 1.54 1.82 2.07 1.90 1.93 2.31 3.17 3.20 1.70 1.51 1.52 1.85 2.20 1.87 1.49 1.83 1.43 0.83 0.68 0.61 0.61 1.21 1.20 1.12 1.23 1.40 1.45 1.44 1.35 1.64 1.93 2.19 2.23 2.21 2.32 2.29 2.08 1.96 1.75 1.10 1.68 2.48 1.96 2.24 2.01 2.06 1.60 1.87 1.93 2.28 2.36 1.90 1.71 2.20 2.74 2.92 2.29 2.71 2.50 2.51 1.83 1.83 2.11 3.07 2.75 2.64 3.62 3.15 2.33 2.09
0.66 1.13 1.39 1.75 2.44 2.21 1.97 2.84 3.15 3.54 4.07 4.22 3.65 3.41 3.00 2.31 1.73 2.06 2.45 2.30 2.99 2.96 1.73 2.18 1.92 1.50 1.53 1.07 0.97 1.05 0.77 0.85 0.75 0.66 0.72 0.67 0.91 1.73 1.77 1.11 0.91 0.99 1.27 1.42 1.11 1.16 1.49 2.01 2.14 1.52 1.32 1.34 1.61 1.52 1.65 2.37 4.00 2.65 2.25 3.20 2.89 2.29 1.60 1.80 2.24 2.49 2.24 2.47 2.15 1.93 2.58 2.50 2.35 2.05 2.29 3.52 2.61 3.18 2.89 2.57 2.69 2.69 2.99 3.05 3.63
0.71 0.58 0.68 0.87 1.38 1.90 1.98 2.13 2.13 2.16 2.79 4.08 3.17 2.54 2.71 2.90 2.54 2.28 3.22 3.18 2.14 2.56 2.67 2.13 1.48 1.86 1.84 1.89 1.69 2.30 1.99 1.75 1.63 0.87 1.10 0.88 0.84 1.12 1.82 1.56 1.61 1.62 1.20 1.34 1.18 0.97 1.36 0.99 1.19 1.08 1.30 1.16 1.29 2.02 2.02 1.92 1.93 3.36 2.25 2.24 2.49 2.99 2.11 2.00 2.20 2.22 3.42 3.34 2.72 2.67 2.61 2.48 2.38 2.40 2.49 2.06 2.29 2.19 2.32 2.50 3.05 2.74 2.95 3.72 3.13
0.20 0.27 0.40 0.61 0.88 1.34 2.04 3.18 2.57 2.89 3.09 3.40 2.57 2.05 2.08 2.18 2.11 2.88 3.00 2.15 2.68 2.80 2.59 2.39 2.83 2.13 1.80 1.76 1.66 2.12 1.91 1.76 2.61 1.90 1.55 1.39 1.03 1.41 2.32 1.32 1.11 1.40 1.21 1.35 0.90 0.77 0.77 0.91 1.06 0.98 0.92 0.87 1.11 1.06 1.29 1.12 1.82 5.19 3.10 1.76 1.88 2.15 2.70 2.42 3.22 3.68 3.13 3.02 2.45 2.55 2.87 2.72 2.00 2.41 2.31 2.53 2.59 2.15 2.50 2.90 3.49 4.30 4.41 5.16 4.45
0.16 0.23 0.21 0.37 0.90 1.01 0.87 2.05 2.31 2.91 2.60 2.02 1.90 2.33 2.08 1.77 1.89 1.90 1.87 1.82 1.80 1.99 2.13 1.76 1.69 1.61 1.76 1.75 1.77 1.75 1.73 2.07 1.73 2.05 1.87 1.73 1.66 1.72 1.22 1.46 1.21 1.98 1.09 1.56 0.92 1.04 1.15 1.24 1.66 1.59 1.11 0.77 0.91 0.93 2.27 2.45 2.68 3.44 2.62 2.57 2.08 2.39 3.50 3.80 3.43 3.68 3.48 2.41 2.36 2.39 2.38 2.34 2.23 2.33 2.68 3.32 3.77 4.40 4.65 5.02 5.37 5.32 4.02 4.10 4.65
0.62 0.90 0.92 0.88 0.81 1.13 1.33 1.28 1.02 1.28 2.00 3.39 2.61 1.84 1.87 2.32 1.83 1.79 1.73 1.83 1.83 1.69 1.66 1.72 1.76 1.79 1.98 1.86 1.71 1.78 1.76 1.89 1.94 2.02 2.10 1.86 1.73 1.32 1.40 1.18 1.31 2.16 2.19 2.01 1.58 1.72 1.78 2.20 1.74 1.40 1.49 1.57 2.07 1.51 1.90 2.30 2.34 1.80 2.30 2.93 2.59 2.90 5.47 4.19 3.37 2.59 2.65 2.65 2.72 2.26 2.24 2.35 2.92 2.93 3.03 3.52 4.38 5.41 4.85 3.84 3.80 3.40 3.86 3.91 3.65
0.93 0.84 0.77 0.80 0.65 0.69 0.81 0.83 0.91 0.64 0.75 1.31 2.43 1.77 2.33 2.71 2.56 2.59 2.19 2.13 2.09 2.10 2.17 1.84 1.84 1.89 1.55 1.64 1.64 2.10 2.15 2.77 2.78 2.08 1.94 1.45 1.42 1.31 1.22 1.86 2.32 1.84 2.14 1.84 1.50 2.19 2.63 2.28 3.08 3.17 2.07 1.44 1.13 1.41 2.21 1.75 1.32 1.53 1.96 3.59 4.61 5.42 3.36 3.05 3.50 3.27 3.07 2.98 2.87 2.77 2.74 3.21 3.93 4.06 3.72 4.24 5.20 4.72 4.68 4.06 4.17 3.74 4.12 3.76 4.11
1.05 0.92 1.22 1.14 1.00 1.34 1.18 0.84 0.45 0.79 1.04 1.02 2.03 1.72 1.08 2.09 2.31 2.46 2.25 2.00 2.02 1.93 2.36 2.12 2.23 2.09 2.14 2.26 1.75 1.85 1.99 2.05 1.89 1.79 1.94 2.02 3.19 2.24 1.73 1.58 2.07 2.64 2.23 3.06 2.37 1.77 1.52 1.62 1.70 1.94 1.59 1.91 3.26 3.53 2.57 2.37 2.23 2.53 2.17 2.02 2.38 2.63 2.75 2.31 2.27 2.49 2.59 2.68 3.08 3.14 3.55 3.26 4.03 4.60 3.83 4.28 3.58 3.39 3.59 4.13 4.52 4.45 3.88 4.19 4.42
1.33 1.11 1.01 0.98 0.99 1.38 1.27 1.31 1.69 1.70 1.19 1.58 1.72 2.56 1.45 1.62 1.46 1.64 1.34 1.50 1.69 1.72 1.62 1.65 1.69 1.67 1.96 2.08 2.20 2.10 1.68 1.88 1.78 2.53 3.65 2.46 2.08 2.25 2.36 2.57 2.01 2.47 3.65 2.93 2.25 3.08 2.73 2.94 3.22 3.15 3.13 2.51 3.05 2.80 3.22 2.72 2.73 2.64 2.55 2.44 2.67 2.95 3.14 2.93 2.80 2.80 3.41 3.20 2.66 2.57 2.67 2.71 2.52 2.54 3.11 3.44 4.25 4.57 3.49 3.89 3.85 4.30 3.61 4.40 5.23
1.55 1.26 1.49 1.18 1.14 1.05 1.04 0.88 0.83 0.93 1.05 0.98 1.19 2.18 1.38 1.58 1.75 1.54 1.66 1.60 1.41 1.34 1.23 1.42 1.62 1.73 1.99 2.89 2.63 1.79 1.74 1.66 1.67 1.78 1.75 1.74 2.79 2.50 2.95 2.74 3.05 2.68 2.54 2.50 2.57 2.36 2.50 2.52 2.05 2.70 2.43 2.78 2.57 2.41 2.29 2.08 1.86 1.99 2.35 2.68 2.69 2.86 3.14 3.22 3.50 2.77 2.58 2.89 2.92 2.41 2.27 2.18 2.31 3.09 3.11 2.93 3.03 3.26 2.98 3.09 3.31 3.63 4.03 3.98 4.30
1.02 1.38 1.37 1.41 1.54 1.74 1.72 1.95 1.69 1.01 0.61 0.91 1.32 1.71 1.79 0.89 0.96 1.44 2.08 3.19 2.63 2.53 1.93 1.36 1.19 1.22 1.72 2.03 2.07 1.71 1.72 1.69 1.49 2.37 2.36 2.04 4.06 4.13 2.96 2.76 2.50 2.39 2.02 2.14 2.11 2.38 2.27 2.09 2.13 2.03 2.31 2.03 1.98 2.22 2.47 2.12 2.38 2.51 2.65 2.84 3.15 2.89 2.63 2.80 3.14 2.77 2.74 2.57 2.77 2.79 2.94 2.82 2.90 2.96 2.96 2.50 2.64 2.53 2.83 2.96 3.39 3.67 3.90 4.55 4.39
2.02 1.62 1.23 1.07 0.75 1.15 1.22 1.13 0.70 0.64 0.53 0.82 0.63 0.93 0.86 0.72 0.89 0.96 1.51 1.86 0.87 0.68 1.06 1.94 1.69 1.72 1.25 1.20 1.71 1.83 1.50 2.49 2.53 2.64 2.40 1.94 2.03 2.62 3.27 3.50 3.23 3.67 2.74 2.36 3.47 3.23 2.23 2.10 2.32 1.95 2.05 2.22 1.93 2.08 2.40 2.43 2.41 2.72 2.54 2.36 2.32 2.71 3.08 2.78 2.85 2.98 2.73 2.93 2.66 2.70 2.70 2.53 2.34 2.48 2.56 2.81 3.01 2.81 2.88 2.52 3.42 3.25 3.53 3.83 3.69
3.12 2.49 1.85 1.58 1.84 2.01 1.50 1.06 1.19 1.53 1.10 1.42 1.44 0.69 0.78 1.01 1.20 1.43 0.80 1.70 2.00 1.41 1.12 1.66 1.22 0.98 1.54 1.75 2.34 1.85 1.17 1.59 1.18 1.80 1.96 2.64 2.84 2.10 2.25 2.31 2.57 2.57 3.10 4.07 4.23 2.95 3.04 2.46 2.15 2.03 2.21 1.90 2.35 2.61 3.09 3.12 3.40 3.17 3.40 3.39 3.09 2.93 2.42 2.74 3.14 3.23 2.88 2.36 2.68 2.87 2.33 2.60 2.70 2.26 2.46 2.38 2.78 2.73 2.71 2.80 2.68 2.41 2.55 2.58 2.89
3.72 3.19 2.78 2.01 1.98 2.25 1.72 1.96 1.94 1.38 1.24 1.31 1.52 1.45 1.02 1.29 1.39 1.13 1.27 1.56 1.82 1.30 1.31 0.93 1.31 1.66 1.51 1.90 1.52 2.52 1.47 0.76 0.83 0.93 1.05 1.25 1.34 1.77 1.67 1.57 1.93 2.38 2.48 3.16 3.59 3.61 2.94 2.48 2.37 2.37 2.20 2.06 2.11 1.79 2.03 2.05 2.36 2.57 2.83 3.04 3.43 3.39 3.23 3.20 2.92 2.62 2.74 2.62 2.83 2.96 2.92 2.49 3.03 3.00 2.70 2.56 2.35 2.59 2.50 2.65 2.95 2.44 2.39 2.28 2.51
2.77 3.75 3.98 3.40 3.39 2.81 1.30 1.71 2.48 2.93 2.65 1.84 1.40 1.37 1.52 1.39 1.86 1.90 2.46 2.28 2.19 2.13 2.04 1.62 1.61 2.57 2.52 2.16 2.16 1.50 2.06 1.31 0.97 1.42 1.33 1.08 1.21 1.62 1.89 1.55 2.13 2.68 3.69 4.50 4.23 3.42 3.12 3.26 2.92 2.95 2.64 2.71 2.40 2.35 2.24 2.15 2.14 2.52 2.68 2.68 2.61 3.09 2.73 2.90 2.51 2.70 2.73 3.02 2.81 2.49 2.44 2.70 2.74 2.29 2.16 2.32 2.46 2.96 2.38 2.26 2.27 2.36 2.46 2.53 2.46
1.95 2.24 2.96 2.35 1.27 1.96 2.38 1.76 1.99 2.08 2.49 2.42 2.64 2.26 2.09 1.93 2.16 2.14 3.31 2.57 2.83 2.49 2.13 1.75 1.39 1.26 1.30 1.37 1.33 1.98 1.66 0.67 0.92 0.75 0.84 1.11 1.55 1.87 1.99 2.86 1.85 2.32 2.70 2.47 2.89 2.68 2.48 3.07 2.62 2.70 2.84 2.60 2.67 2.62 2.38 2.57 2.54 2.43 2.24 2.44 2.26 2.30 2.14 2.05 2.45 2.53 2.32 2.24 2.42 2.26 2.24 2.63 1.97 1.88 2.14 2.28 2.25 2.25 2.33 2.25 2.36 2.38 2.44 2.37 2.20
1.53 2.28 1.71 2.18 3.00 2.25 2.01 1.74 1.86 2.31 2.10 1.97 1.59 1.44 1.58 1.77 2.17 1.75 1.75 2.58 3.31 3.86 4.50 3.25 2.50 2.48 2.37 1.81 1.21 1.46 1.82 1.51 1.03 0.82 1.13 1.31 1.45 1.51 1.43 1.73 2.81 2.32 2.15 2.60 2.59 2.66 2.60 2.04 2.04 2.05 2.13 2.07 2.27 2.28 2.34 2.33 2.21 2.02 2.19 2.26 2.47 2.36 2.32 2.38 2.59 2.39 2.26 2.35 2.37 2.21 2.28 2.36 2.43 2.43 2.17 1.82 1.90 1.92 1.90 1.90 2.01 1.92 2.09 1.85 2.18
1.48 1.30 0.97 1.67 2.37 2.59 2.63 2.35 2.22 2.36 2.29 2.08 1.85 1.54 1.21 1.20 1.71 2.17 2.29 2.50 2.10 2.15 2.54 3.03 3.41 2.98 2.30 2.37 1.97 2.00 2.07 2.40 1.91 1.44 1.35 1.37 1.82 1.85 2.60 2.41 1.55 1.40 1.79 2.14 2.06 1.62 1.26 1.52 1.99 1.98 1.99 1.97 2.00 2.35 2.07 2.12 1.74 1.57 1.65 1.82 1.92 1.88 1.73 1.66 1.71 1.81 1.96 2.14 2.12 1.86 1.90 1.93 1.64 1.87 1.89 1.98 1.81 1.63 1.59 1.39 1.45 1.62 1.67 1.96 1.75
1.62 1.68 1.86 1.60 1.42 1.59 1.79 1.75 2.00 1.90 1.63 1.61 1.36 1.32 1.52 1.66 1.70 1.31 0.89 0.87 1.19 1.76 1.71 1.59 1.49 1.85 1.59 1.81 1.41 1.36 1.62 1.98 1.63 1.74 1.71 1.58 1.29 1.70 1.90 1.46 1.75 1.41 1.22 1.56 1.65 1.66 1.80 1.89 1.73 1.78 1.82 1.77 1.47 1.36 1.34 1.34 1.41 1.45 1.48 1.23 1.11 1.01 1.18 1.25 1.41 1.24 1.28 1.46 1.33 1.29 1.26 1.27 1.19 1.29 1.38 1.27 1.14 1.06 1.35 1.32 1.43 1.27 1.27 1.45 1.22
1.10 1.66 1.68 1.47 1.25 1.06 1.28 1.66 1.76 1.56 1.19 1.18 1.28 1.66 1.47 1.39 1.48 1.49 1.18 1.29 0.96 1.10 1.62 1.41 1.17 1.12 1.19 1.38 1.33 1.52 1.36 1.09 1.13 0.96 1.00 1.34 1.93 1.39 1.16 1.45 1.36 1.21 1.25 1.34 1.51 1.64 1.98 2.05 2.00 1.81 1.58 1.77 1.52 1.37 1.44 1.41 1.09 1.07 0.82 0.91 0.70 0.67 0.79 0.99 0.87 1.01 0.97 1.00 1.08 1.10 1.09 1.06 0.96 1.31 0.96 0.95 1.16 0.90 1.00 0.88 0.86 0.90 0.87 0.88 1.05
1.68 1.24 1.22 1.36 1.15 1.16 1.20 1.09 1.10 1.36 1.41 1.30 1.33 1.13 1.19 1.06 1.02 1.06 1.42 1.31 1.11 1.36 1.52 1.14 1.05 1.01 1.05 0.85 0.86 0.93 1.18 1.44 1.37 0.91 0.80 1.07 1.11 1.40 1.33 1.10 1.28 1.62 1.30 1.46 1.30 1.31 1.22 1.39 1.31 1.55 1.38 1.30 1.07 1.12 0.96 0.83 0.84 0.83 0.82 0.76 0.77 0.77 0.71 0.71 0.70 0.68 0.62 0.75 0.80 0.84 0.84 0.82 0.79 0.71 0.72 0.80 0.83 0.69 0.69 0.70 0.78 0.84 0.97 0.79 0.87
1.06 1.33 1.36 1.16 1.29 1.22 1.58 1.29 1.06 1.09 1.02 1.28 1.47 1.45 1.43 1.25 1.45 1.21 1.16 0.95 1.05 1.12 1.27 1.44 1.44 1.41 1.59 1.27 1.09 1.10 1.17 1.30 1.30 1.72 1.41 1.15 1.01 1.01 1.28 1.21 1.18 1.36 1.38 1.59 1.46 1.57 1.38 1.28 1.42 1.59 1.48 1.43 1.40 1.22 1.14 1.04 1.12 0.86 0.95 0.82 0.90 0.99 0.87 0.78 1.00 0.75 0.71 0.64 0.64 0.75 0.65 0.82 0.83 0.80 0.76 0.63 0.81 1.04 0.83 0.78 0.67 0.72 0.75 0.82 0.74
1.08 1.02 0.99 0.96 1.06 1.26 1.37 1.55 1.39 1.24 1.17 1.23 1.50 1.38 1.68 1.36 1.55 1.92 1.70 1.39 1.34 1.27 1.23 1.40 1.49 1.52 1.35 1.43 1.06 1.16 1.16 1.02 1.48 1.46 1.52 1.58 1.74 2.10 1.70 1.85 1.60 1.50 1.35 1.31 1.36 1.31 1.46 1.74 1.87 1.83 1.64 1.64 1.45 1.18 1.03 1.06 1.05 0.90 0.87 0.85 0.77 0.82 0.81 0.87 0.89 0.87 0.88 0.83 0.69 0.67 0.70 0.66 0.71 0.81 0.86 0.84 0.76 0.84 0.91 0.91 0.85 0.91 0.87 0.85 0.82
1.15 1.36 1.77 1.93 1.55 1.39 1.27 1.29 1.49 1.23 1.25 1.04 1.09 1.27 1.15 1.49 1.33 1.26 1.44 1.46 1.28 1.58 1.71 1.90 2.09 1.64 1.44 1.51 1.38 1.47 1.46 1.38 1.04 1.06 1.23 1.24 1.57 1.82 2.17 2.10 1.92 1.71 1.76 1.79 1.44 1.47 1.65 1.90 2.10 2.00 1.78 1.88 1.55 1.33 1.17 0.98 0.98 1.05 1.05 1.02 0.93 0.93 0.86 0.94 0.98 0.93 0.81 0.84 0.87 0.90 0.87 0.87 0.86 0.91 0.83 0.91 0.92 0.95 0.99 1.02 0.97 0.91 0.98 0.97 0.91
0.66 1.05 1.73 1.59 1.74 1.62 1.26 1.23 0.98 1.12 1.34 1.36 1.19 1.22 1.17 1.37 1.47 1.43 1.22 1.45 1.34 1.25 1.59 1.69 1.53 1.47 1.99 1.84 1.77 1.66 1.68 1.58 1.39 1.40 1.36 1.35 1.45 1.42 1.45 1.47 1.79 1.60 1.59 1.75 1.80 1.84 1.91 2.19 2.25 2.04 1.78 1.53 1.41 1.11 1.09 1.11 1.17 1.16 1.18 1.08 1.11 1.12 1.15 1.04 0.94 0.87 0.77 0.74 0.68 0.68 0.66 0.61 0.67 0.73 0.64 0.65 0.75 0.82 0.79 0.72 0.77 0.79 0.77 0.82 0.84
0.69 0.82 0.88 0.96 0.95 1.42 1.39 1.10 1.23 1.01 0.91 0.86 1.05 1.04 1.10 1.40 1.20 1.17 1.53 1.31 1.37 1.38 1.36 1.38 1.79 1.52 1.69 1.41 1.39 1.53 1.56 1.56 1.67 1.70 1.69 1.43 1.50 1.61 1.54 1.55 1.66 1.41 1.35 1.43 1.38 1.65 1.87 1.89 2.16 1.94 1.88 1.90 1.72 1.55 1.44 1.42 1.59 1.47 1.41 1.33 1.35 1.26 1.13 0.97 0.87 0.86 0.84 0.84 0.71 0.65 0.59 0.59 0.54 0.51 0.48 0.47 0.51 0.59 0.69 0.73 0.70 0.70 0.73 0.76 0.79
0.55 0.61 0.68 0.78 0.79 1.08 1.03 1.23 1.16 1.05 0.96 0.93 0.79 0.74 0.92 0.87 1.02 0.92 1.03 1.59 1.37 1.16 1.48 1.45 1.56 1.59 1.45 1.27 1.20 1.44 1.46 1.49 1.26 1.31 1.28 1.31 1.27 1.36 1.37 1.44 1.49 1.48 1.46 1.46 1.67 1.73 1.85 1.89 1.94 1.94 1.84 1.81 1.75 1.74 1.78 1.61 1.63 1.59 1.37 1.30 1.25 1.20 1.15 1.18 1.08 1.02 1.01 0.98 0.87 0.74 0.66 0.62 0.61 0.57 0.54 0.49 0.51 0.54 0.55 0.60 0.72 0.78 0.79 0.82 0.91
0.65 0.45 0.30 0.39 0.52 0.78 0.98 1.05 1.11 1.08 1.10 1.06 1.03 0.94 0.93 0.74 0.78 0.85 0.93 1.14 1.36 1.37 1.59 1.23 1.43 1.49 1.50 1.22 1.05 1.03 1.17 1.13 1.26 1.17 1.15 1.12 1.17 1.22 1.29 1.33 1.38 1.55 1.64 1.65 1.71 1.90 2.02 2.08 2.02 1.91 1.84 1.64 1.33 1.21 1.16 1.11 0.99 1.03 1.15 1.13 1.06 1.08 1.15 1.15 1.11 1.03 0.97 0.99 0.87 0.80 0.72 0.66 0.62 0.64 0.61 0.55 0.52 0.51 0.44 0.45 0.53 0.63 0.77 0.79 0.78
0.46 0.31 0.23 0.21 0.48 0.62 0.66 0.57 0.85 1.37 1.26 1.57 1.42 1.42 1.47 1.44 1.26 1.07 0.99 1.01 0.84 0.89 0.83 0.87 1.00 1.15 1.09 1.16 1.49 0.99 0.92 1.01 1.08 1.05 1.06 1.06 1.09 1.12 1.04 1.09 1.22 1.34 1.37 1.57 1.73 2.03 2.14 1.87 1.64 1.34 1.21 1.12 1.08 1.12 1.06 1.05 1.04 0.94 0.84 0.87 0.94 0.91 0.91 0.92 1.11 1.19 0.85 0.79 0.77 0.76 0.74 0.70 0.66 0.66 0.66 0.64 0.64 0.60 0.54 0.54 0.58 0.59 0.68 0.81 0.85
0.44 0.27 0.30 0.30 0.21 0.46 0.85 1.07 1.24 0.61 0.87 0.78 1.06 0.98 0.93 0.94 1.11 1.14 1.12 1.21 1.34 1.12 1.03 0.81 0.93 0.98 1.02 0.91 1.33 1.27 1.25 1.13 0.98 1.17 1.09 1.04 0.99 0.98 0.98 1.08 1.09 1.20 1.33 1.61 1.73 1.68 1.55 1.32 1.10 0.99 1.04 0.96 0.88 0.89 0.84 0.80 0.75 0.81 0.81 0.78 0.88 0.93 0.97 0.80 0.75 0.73 0.71 0.73 0.72 0.68 0.66 0.66 0.69 0.68 0.68 0.66 0.66 0.67 0.63 0.65 0.67 0.64 0.64 0.70 0.73
0.85 0.85 0.72 0.83 0.93 1.21 0.76 0.56 0.57 0.63 0.63 0.77 0.98 0.71 0.92 0.91 1.15 1.02 1.07 1.13 1.07 1.40 1.20 1.11 1.06 0.93 0.76 0.69 0.78 0.75 0.85 0.87 0.94 1.02 1.21 1.14 1.03 0.96 0.95 1.01 1.08 1.03 1.07 1.15 1.13 1.14 0.96 0.86 0.77 0.73 0.76 0.68 0.63 0.69 0.71 0.76 0.73 0.68 0.60 0.70 0.62 0.57 0.58 0.60 0.65 0.74 0.69 0.65 0.63 0.59 0.59 0.60 0.62 0.63 0.62 0.66 0.62 0.58 0.56 0.61 0.62 0.60 0.57 0.61 0.65
0.19 0.14 0.14 0.11 0.17 0.21 0.21 0.21 0.22 0.40 0.31 0.38 0.34 0.31 0.27 0.28 0.45 0.55 0.58 0.58 0.64 0.67 0.75 0.66 0.65 0.71 0.74 0.74 0.74 0.78 0.77 0.78 0.93 0.90 0.96 1.00 1.13 1.14 1.15 1.08 1.07 1.04 1.00 0.97 0.91 0.77 0.70 0.66 0.64 0.56 0.49 0.47 0.47 0.50 0.49 0.47 0.47 0.44 0.46 0.43 0.44 0.41 0.41 0.39 0.39 0.40 0.42 0.48 0.51 0.54 0.57 0.60 0.61 0.59 0.57 0.59 0.61 0.64 0.57 0.55 0.55 0.54 0.54 0.57 0.59
0.23 0.16 0.16 0.13 0.11 0.20 0.14 0.26 0.15 0.15 0.24 0.22 0.28 0.26 0.28 0.27 0.45 0.42 0.48 0.44 0.61 0.44 0.38 0.41 0.39 0.42 0.51 0.67 0.63 0.67 0.80 0.78 0.79 0.79 0.76 0.79 0.95 0.99 1.03 1.02 1.02 0.97 0.86 0.75 0.68 0.58 0.54 0.57 0.55 0.49 0.44 0.37 0.36 0.38 0.39 0.34 0.33 0.38 0.45 0.43 0.38 0.35 0.33 0.31 0.31 0.31 0.31 0.31 0.33 0.34 0.36 0.39 0.44 0.48 0.50 0.50 0.51 0.50 0.49 0.47 0.49 0.52 0.53 0.54 0.57